TimeCST,TemperatureF,Dew PointF,Humidity,Sea Level PressureIn,VisibilityMPH,Wind Direction,Wind SpeedMPH,Gust SpeedMPH,PrecipitationIn,Events,Conditions,WindDirDegrees,DateUTC
12:25 AM,17.6,10.4,73,29.58,10.0,WNW,16.1,28.8,N/A,,Overcast,290,2013-01-31 06:25:00
12:53 AM,18.0,10.9,74,29.63,10.0,West,18.4,24.2,N/A,,Overcast,280,2013-01-31 06:53:00
1:20 AM,17.6,12.2,79,29.60,5.0,West,19.6,24.2,0.00,Snow,Light Snow,280,2013-01-31 07:20:00
1:48 AM,17.6,10.4,73,29.62,9.0,WNW,16.1,26.5,0.00,,Overcast,290,2013-01-31 07:48:00
1:53 AM,18.0,10.0,71,29.65,7.0,WNW,12.7,21.9,0.00,Snow,Light Snow,290,2013-01-31 07:53:00
2:15 AM,17.6,10.4,73,29.63,4.0,West,20.7,26.5,0.00,Snow,Light Snow,280,2013-01-31 08:15:00
2:53 AM,17.1,10.9,77,29.67,2.5,WNW,12.7,20.7,0.00,Snow,Light Snow,290,2013-01-31 08:53:00
3:11 AM,17.6,10.4,73,29.64,5.0,West,20.7,27.6,0.00,Snow,Light Snow,270,2013-01-31 09:11:00
3:53 AM,17.1,7.0,65,29.68,8.0,WNW,13.8,25.3,0.00,Snow,Light Snow,290,2013-01-31 09:53:00
4:09 AM,15.8,6.8,68,29.65,10.0,WNW,13.8,27.6,0.00,,Overcast,300,2013-01-31 10:09:00
4:53 AM,16.0,8.1,71,29.70,8.0,West,16.1,23.0,0.00,Snow,Light Snow,270,2013-01-31 10:53:00
5:06 AM,15.8,6.8,68,29.67,10.0,WNW,17.3,27.6,N/A,,Overcast,290,2013-01-31 11:06:00
5:53 AM,16.0,7.0,68,29.71,5.0,WNW,11.5,24.2,0.00,Snow,Light Snow,290,2013-01-31 11:53:00
6:18 AM,15.8,6.8,68,29.69,10.0,West,15.0,21.9,0.00,,Overcast,280,2013-01-31 12:18:00
6:53 AM,16.0,8.1,71,29.73,9.0,West,13.8,21.9,0.00,,Overcast,260,2013-01-31 12:53:00
7:53 AM,15.1,6.1,68,29.77,10.0,West,15.0,27.6,0.00,,Overcast,280,2013-01-31 13:53:00
8:17 AM,15.8,6.8,68,29.75,2.5,West,17.3,23.0,0.00,Snow,Light Snow,280,2013-01-31 14:17:00
8:53 AM,15.1,6.1,68,29.80,1.5,WNW,18.4,27.6,0.00,Snow,Light Snow,290,2013-01-31 14:53:00
9:05 AM,15.8,6.8,68,29.77,3.0,WNW,18.4,25.3,0.00,Snow,Light Snow,290,2013-01-31 15:05:00
9:12 AM,14.0,5.0,67,29.77,2.5,WNW,15.0,25.3,0.00,,Haze,300,2013-01-31 15:12:00
9:18 AM,15.8,5.0,62,29.77,6.0,WNW,15.0,23.0,0.00,,Haze,290,2013-01-31 15:18:00
9:53 AM,14.0,1.9,59,29.82,10.0,NW,19.6,26.5,0.00,,Mostly Cloudy,310,2013-01-31 15:53:00
10:53 AM,15.1,3.9,61,29.85,10.0,WNW,13.8,24.2,N/A,,Mostly Cloudy,300,2013-01-31 16:53:00
11:22 AM,15.8,5.0,62,29.81,2.5,WNW,15.0,23.0,0.00,Snow,Light Snow,290,2013-01-31 17:22:00
11:33 AM,14.0,6.8,73,29.80,1.0,West,16.1,24.2,0.00,Snow,Light Snow,280,2013-01-31 17:33:00
11:44 AM,14.0,8.6,79,29.81,1.0,WNW,15.0,-,0.00,Snow,Light Snow,300,2013-01-31 17:44:00
11:51 AM,14.0,8.6,79,29.81,0.5,WNW,11.5,-,0.00,Snow,Snow,290,2013-01-31 17:51:00
11:53 AM,15.1,8.1,74,29.85,0.5,WNW,12.7,-,0.00,Snow,Snow,290,2013-01-31 17:53:00
12:20 PM,15.8,6.8,68,29.81,2.0,West,18.4,-,0.00,Snow,Light Snow,280,2013-01-31 18:20:00
12:50 PM,15.8,6.8,68,29.82,0.5,West,18.4,23.0,0.00,Snow,Snow,270,2013-01-31 18:50:00
12:53 PM,15.1,6.1,68,29.87,0.5,West,18.4,25.3,0.00,Snow,Snow,270,2013-01-31 18:53:00
1:12 PM,15.8,6.8,68,29.83,7.0,West,19.6,26.5,0.00,,Overcast,280,2013-01-31 19:12:00
1:50 PM,14.0,6.8,73,29.84,0.8,West,13.8,26.5,0.00,Snow,Light Snow,280,2013-01-31 19:50:00
1:53 PM,14.0,6.1,71,29.89,0.8,West,19.6,25.3,0.00,Snow,Light Snow,270,2013-01-31 19:53:00
2:02 PM,14.0,5.0,67,29.84,1.0,West,19.6,25.3,0.00,Snow,Light Snow,280,2013-01-31 20:02:00
2:35 PM,12.2,3.2,67,29.85,3.0,West,16.1,25.3,0.00,Snow,Light Snow,280,2013-01-31 20:35:00
2:53 PM,12.9,3.9,67,29.90,7.0,WNW,17.3,26.5,0.00,,Overcast,290,2013-01-31 20:53:00
3:32 PM,12.2,5.0,73,29.87,3.0,West,18.4,24.2,0.00,Snow,Light Snow,270,2013-01-31 21:32:00
3:34 PM,12.2,5.0,73,29.87,1.8,West,17.3,-,0.00,Snow,Light Snow,270,2013-01-31 21:34:00
3:37 PM,12.2,5.0,73,29.87,3.0,West,16.1,-,0.00,,Haze,280,2013-01-31 21:37:00
3:39 PM,12.2,5.0,73,29.87,2.0,West,17.3,-,0.00,Snow,Light Snow,280,2013-01-31 21:39:00
3:53 PM,12.0,5.0,73,29.92,2.0,West,18.4,24.2,0.00,Snow,Light Snow,280,2013-01-31 21:53:00
4:00 PM,12.2,5.0,73,29.88,1.5,West,16.1,23.0,0.00,Snow,Light Snow,280,2013-01-31 22:00:00
4:49 PM,12.2,3.2,67,29.90,3.0,West,20.7,25.3,0.00,,Haze,270,2013-01-31 22:49:00
4:53 PM,12.0,3.0,67,29.94,3.0,West,20.7,25.3,0.00,,Haze,270,2013-01-31 22:53:00
6:27 PM,10.4,3.2,73,29.96,0.8,West,20.7,24.2,0.00,Snow,Light Snow,280,2013-02-01 00:27:00
6:47 PM,10.4,3.2,73,29.97,1.0,West,12.7,-,0.00,Snow,Light Snow,280,2013-02-01 00:47:00
6:53 PM,10.0,3.9,76,30.02,1.2,West,15.0,20.7,0.00,Snow,Light Snow,280,2013-02-01 00:53:00
7:17 PM,8.6,3.2,79,29.98,9.0,West,12.7,-,0.00,,Overcast,270,2013-02-01 01:17:00
7:53 PM,9.0,3.0,77,30.04,5.0,West,12.7,-,0.00,,Haze,280,2013-02-01 01:53:00
9:09 PM,8.6,3.2,79,30.03,2.0,WNW,12.7,-,0.00,Snow,Light Snow,290,2013-02-01 03:09:00
9:25 PM,8.6,-0.4,67,30.03,5.0,WNW,15.0,27.6,0.00,,Haze,300,2013-02-01 03:25:00
9:41 PM,8.6,-2.2,62,30.04,10.0,WNW,16.1,25.3,0.00,,Overcast,300,2013-02-01 03:41:00
10:53 PM,6.1,-4.0,63,30.12,10.0,WNW,19.6,27.6,N/A,,Scattered Clouds,300,2013-02-01 04:53:00
11:53 PM,5.0,-4.0,66,30.14,10.0,WNW,13.8,28.8,N/A,,Scattered Clouds,300,2013-02-01 05:53:00